Location: Unspecified
(48.7670°N, 0.0000°E)
Time: 15:11:18
(UTC+00:00)

Altair - Pass Details

Date: 03 July 2019
Orbit: 1501 x 1683 km, 47.2° (Epoch: 19 August)

Event Time Altitude Azimuth Distance (km) Brightness Sun altitude
Rises 22:05:42 0° 287° (WNW) 4,746 10.8 -13.6°
Reaches altitude 10° 22:08:48 10° 283° (WNW) 3,784 10.1 -13.8°
Maximum altitude 22:18:04 54° 210° (SSW) 1,905 7.8 -14.5°
Enters shadow 22:25:44 17° 140° (SE) 3,338 8.7 -15.0°
Drops below altitude 10° 22:27:40 10° 136° (SE) 3,905 - -15.1°
Sets 22:30:56 0° 133° (SE) 4,906 - -15.3°
